Regional Weather Roundup
Issued by NWS Northern Indiana

Home | Current Version | Previous Version | Text Only | Print | Product List | Glossary Off
Versions: 1 2 3 4 5 6 7 8 9 10 11 12 13 14 15 16 17 18 19 20 21 22 23 24 25 26 27 28 29 30 31 32 33 34 35 36 37 38 39 40 41 42 43 44 45 46 47 48 49 50

000
ASUS43 KIWX 301500
RWRIWX

KIWX WEATHER ROUNDUP
NATIONAL WEATHER SERVICE NORTHERN INDIANA
1100 AM EDT SAT APR 30 2016

NOTE: "FAIR" INDICATES FEW OR NO CLOUDS BELOW 12,000 FEET WITH NO
SIGNIFICANT WEATHER AND/OR OBSTRUCTIONS TO VISIBILITY.

* THESE STATIONS ARE NOT UNDER NWS QUALITY CONTROL. THEY ALSO MAY NOT
  REPORT WEATHER SUCH AS PRECIPITATION OR FOG.

INZ001>027-301600-
NORTHERN INDIANA

CITY           SKY/WX    TMP DP  RH WIND       PRES   REMARKS
GARY*          LGT RAIN  50  46  87 E14       30.05S
SOUTH BEND     CLOUDY    48  35  60 E12       30.08S
ELKHART*       CLOUDY    48  41  76 SE17      30.08F
GOSHEN         CLOUDY    49  35  58 E16       30.08S
ANGOLA*        SUNNY     48  37  66 E15       30.08S
FORT WAYNE     LGT RAIN  48  41  76 E13       30.08S
PERU/GRISSOM   LGT RAIN  47  46  97 E13       30.02R

$$
INZ028>050-301600-
CENTRAL INDIANA

CITY           SKY/WX    TMP DP  RH WIND       PRES   REMARKS
LAFAYETTE      RAIN      49  47  93 E15       30.00F FOG
KOKOMO*        CLOUDY    46  43  87 E13       30.03S
MUNCIE*        LGT RAIN  49  45  86 E10       30.04S FOG
INDIANAPOLIS   RAIN      51  48  89 E12       29.98F FOG

$$
MIZ043>046-050>051-056>058-064>065-071>073-077>080-301600-
SOUTHWEST LOWER MICHIGAN

CITY           SKY/WX    TMP DP  RH WIND       PRES   REMARKS
BATTLE CREEK   CLOUDY    51  34  52 E14       30.10F
BENTON HARBOR  CLOUDY    50  38  63 SE8       30.08R
COLDWATER*     CLOUDY    50  35  54 E15G21    30.09F
HILLSDALE*     PTSUNNY   50  34  53 E14       30.09F
HOLLAND        PTSUNNY   50  37  61 E10G17    30.11F
GRAND RAPIDS   CLOUDY    50  33  52 E14       30.12F
KALAMAZOO      PTSUNNY   53  35  50 E13       30.09F
STURGIS*       CLOUDY    49  37  63 E12G17    30.08S
THREE RIVERS*  FAIR      50  37  62 SE8       30.09S

$$
OHZ001>008-015>018-024>025-301600-
NORTHWEST OHIO

CITY           SKY/WX    TMP DP  RH WIND       PRES   REMARKS
DEFIANCE       CLOUDY    50  35  56 E13       30.10F
FINDLAY        CLOUDY    51  39  63 E9        30.08F
TOLEDO EXPRESS CLOUDY    53  37  54 E13       30.10F
TOLEDO METCALF CLOUDY    53  37  54 E12       30.11F
LIMA           CLOUDY    47  43  86 E10       30.07F

$$
AND FOR LAKE MICHIGAN COASTAL AND OPEN LAKE BUOY OBSERVATIONS

STATION/POSITION TEMP    WIND        PRES    VSBY  WAVE
                 AIR SEA DIR/SP/G                  HT/PER
                 (F)     (DEG/KT/KT) (MB)    (MI)  (FT/S)
CALUMET HARBOR    47      60/  8/ 11 1017.1R
MICHIGAN CITY     48      90/ 13/ 18   N/A
BURNS HARBOR      49      90/ 10/ 18 1017.9F
SAINT JOSEPH      50     350/  2/  7 1018.6
4 MI NW BRIDGMAN  48 47                N/A           1

$$
&&




USA.gov is the U.S. government's official web portal to all federal, state and local government web resources and services.